Disclaimer

Please do not use the information listed here in-flight or in-navigation, as they are not provided to us by the airports but are provided by volunteers, so they might be outdated.

Search


Regions


Airport information page

Radio informations:
APRON - 121.7 MHz
BREMEN RADAR - 134.25 MHz
Ground (GND) - 121.8 MHz
Director (DIR) - 118.2 MHz

Airport informations:
Latitude: 53° 37' 49.40" N
Longitude: 009° 59' 17.62" E
Elevation: 53 feet - 16 meters
Operating hours: N/A
Operating agency: Civil government, landing fees and diplomatic clearance may be required
Timezone: UTC+1(+2DT) - Last Sunday in March to last Sunday in October
Fuel: Jet A1, without icing nhibitor.

100/130 MIL Spec, low lead, aviation gasoline (BLUE)

Runway information:
05/23 - 10663 x 150 feet< - >3250 x 46 meters
15/33 - 12028 x 150 feet< - >3666 x 46 meters

Recent METARs:
EDDH 222020Z 14011KT CAVOK M02/M07 Q1003 NOSIG
EDDH 222050Z 15011KT CAVOK M02/M07 Q1003 NOSIG
EDDH 222120Z 15011KT CAVOK M03/M06 Q1003 NOSIG

Airport on the map: